MIKKELI current weather conditions

sailwx.info

Wind from 060 at 4 knots

Air temperature -0.0° C
Visibility: greater than 5.4 NM
Dewpoint -1.0° C

Last reported at 2018-Dec-10 21:50 UTC.
Time now 2018-Dec-10 22:44 UTC

Location: N 61°41' E 027°12'.
View on Google Maps.

See reports from other nearby stations

  
Tides and Currents Weather Stations Pressure Air Temp Water Temp Dewpoint Dewpoint Depression Visibility Wind Speed Wind Dir Waves Ship Positions
date/time (UTC)wind fromknots sea level pressurealtimeterstation pressurevisibilityair tempwater tempwave heightnotes
2018-Dec-10 21:50 060 4 5.4-0.0
2018-Dec-10 21:20 060 4 5.4-0.0
2018-Dec-10 20:50 060 4 4.3 1.0
2018-Dec-10 20:20 060 5 4.9 1.0
2018-Dec-10 19:50 070 6 3.8 1.0
2018-Dec-10 19:20 070 5 4.3 1.0
2018-Dec-10 18:50 070 4 5.4 1.0
2018-Dec-10 18:20 070 4 5.4 1.0
2018-Dec-10 17:50 060 4 5.4 1.0
2018-Dec-10 17:20 070 4 5.4 1.0
2018-Dec-10 16:50 070 1 5.4 1.0
2018-Dec-10 16:20 090 5 5.4 1.0
2018-Dec-10 15:50 090 5 5.4 1.0
2018-Dec-10 15:20 090 5 5.4 1.0
2018-Dec-10 14:50 090 5 5.4 1.0
2018-Dec-10 14:20 080 5 5.4 1.0
2018-Dec-10 13:50 090 5 5.4 1.0
2018-Dec-10 13:20 080 5 5.4 1.0
2018-Dec-10 12:50 090 5 5.4 1.0
2018-Dec-10 12:20 080 4 5.4 1.0
2018-Dec-10 11:50 080 4 5.4-0.0
2018-Dec-10 11:20 080 5 5.4-0.0
2018-Dec-10 10:50 090 6 5.4-0.0
2018-Dec-10 10:20 090 6 5.4-0.0
2018-Dec-10 09:50 090 6 5.4-0.0
2018-Dec-10 09:20 100 6 5.4-0.0
2018-Dec-10 08:50 090 6 5.4-0.0
2018-Dec-10 08:20 090 6 5.4-0.0
2018-Dec-10 07:50 080 6 5.4-0.0
2018-Dec-10 07:20 090 7 5.4-0.0
2018-Dec-10 06:50 090 6 5.4-0.0
2018-Dec-10 06:20 090 6 5.4-0.0
2018-Dec-10 05:50 080 6 5.4-0.0
2018-Dec-10 05:20 090 6 5.4-0.0
2018-Dec-10 04:50 100 6 5.4-0.0
2018-Dec-10 04:20 100 6 5.4-0.0
2018-Dec-10 03:50 100 8 5.4-0.0
2018-Dec-10 03:20 110 7 5.4-0.0
2018-Dec-10 02:50 100 6 5.4-0.0
2018-Dec-10 02:20 100 9 5.4-0.0
2018-Dec-10 01:50 110 8 5.4-0.0
2018-Dec-10 01:20 110 7 4.9-0.0
2018-Dec-10 00:50 110 9 3.8-0.0
2018-Dec-10 00:20 110 8 3.8-0.0
2018-Dec-09 23:50 110 9 2.7-0.0
2018-Dec-09 23:20 110 8 2.7-0.0
2018-Dec-09 22:50 110 8 2.5-0.0 Mist.
2018-Dec-09 22:20 110 7 2.5-0.0
2018-Dec-09 21:50 110 9 5.4-0.0
2018-Dec-09 21:20 110 8 5.4-0.0
2018-Dec-09 20:50 110 8 5.4-0.0
2018-Dec-09 20:20 110 8 5.4-0.0
2018-Dec-09 19:50 110 8 5.4-0.0 Light rain showers.
2018-Dec-09 19:20 120 8 3.8 1.0
2018-Dec-09 18:50 120 8 5.4 1.0
2018-Dec-09 18:20 110 9 5.4-0.0
2018-Dec-09 17:50 110 8 4.3-0.0 Snow grains.
2018-Dec-09 17:20 110 8 5.4-0.0
2018-Dec-09 16:50 120 9 5.4-0.0
2018-Dec-09 16:20 120 8 4.3-0.0
2018-Dec-09 15:50 120 8 5.4-0.0
2018-Dec-09 15:20 110 9 5.4 1.0
2018-Dec-09 14:50 120 9 5.4 1.0
2018-Dec-09 14:20 120 11 5.4 1.0 Light rain showers.
2018-Dec-09 13:50 120 9 5.4 1.0 Light rain showers.
2018-Dec-09 13:20 130 8 4.3 1.0 Light rain.
2018-Dec-09 12:50 120 9 3.8-0.0 Light rain.
2018-Dec-09 12:20 120 9 3.2-0.0 Snow grains.
2018-Dec-09 11:50 120 9 3.8-0.0
2018-Dec-09 11:20 120 11 4.3-0.0
2018-Dec-09 10:50 120 11 3.8 1.0
2018-Dec-09 10:20 120 9 1.0-0.0 Snow grains. Mist.
2018-Dec-09 09:50 120 11 0.6 1.0 Mist.
2018-Dec-09 09:20 120 11 0.8 1.0 Mist.
2018-Dec-09 08:50 130 8 1.9 1.0 Mist.
2018-Dec-09 08:20 130 11 2.4 1.0 Mist.
2018-Dec-09 07:50 130 11 1.0 1.0 Mist.
2018-Dec-09 07:20 130 12 0.8 1.0 Mist.
2018-Dec-09 06:50 140 8 0.6 1.0 Mist.
2018-Dec-09 06:20 130 11 0.6 1.0 Mist.
2018-Dec-09 05:50 140 9 1.8 2.0 Mist.
2018-Dec-09 05:20 130 9 1.2 2.0 Mist.
2018-Dec-09 04:50 140 7 2.2 2.0 Mist.
2018-Dec-09 04:20 130 7 2.7 2.0
2018-Dec-09 03:50 140 8 2.5 2.0
2018-Dec-09 03:20 130 7 3.8 2.0
2018-Dec-09 02:50 130 6 3.8 1.0
2018-Dec-09 02:20 130 6 2.7 1.0
2018-Dec-09 01:50 130 6 2.6 1.0 Mist.
2018-Dec-09 01:20 130 6 3.8 1.0
2018-Dec-09 00:50 130 6 5.4 1.0
2018-Dec-09 00:20 140 7 2.3-0.0 Mist.
2018-Dec-08 23:50 130 7 1.3-0.0 Light freezing rain. Snow. Mist.
2018-Dec-08 23:20 130 7 2.3-0.0 Light snow showers. Mist.
2018-Dec-08 22:50 140 8 3.2-0.0 Snow grains.
2018-Dec-08 22:20 130 9 2.7-0.0 Light snow.